• In Österreich
  • Länderverzeichnis
  • Für 7 Tage
  • Wassertemperatur
  • Satellitenkarten
  • Wetterkarte
  • News
  • Widgets
  • user-avatar
    Anmelden

    Stündliche Wetter Tibissa

    Heute, 27 Mai, Sonntag

    Zeit Temperatur Niederschläge Wind Luftdruck Luftfeuchtigkeit
    00:00 +25°C° 0 mm 3 m/S 687 mmHg 39%
    01:00 +25°C° 0 mm 2 m/S 687 mmHg 42%
    02:00 +24°C° 0 mm 2 m/S 687 mmHg 42%
    03:00 +24°C° 0 mm 2 m/S 686 mmHg 43%
    04:00 +24°C° 0 mm 2 m/S 686 mmHg 44%
    05:00 +24°C° 0 mm 2 m/S 687 mmHg 43%
    06:00 +25°C° 0 mm 2 m/S 687 mmHg 41%
    07:00 +25°C° 0 mm 2 m/S 687 mmHg 40%
    08:00 +26°C° 0 mm 3 m/S 687 mmHg 35%
    09:00 +28°C° 0 mm 4 m/S 688 mmHg 31%
    10:00 +29°C° 0 mm 5 m/S 688 mmHg 26%
    11:00 +30°C° 0 mm 5 m/S 688 mmHg 24%
    12:00 +33°C° 0 mm 5 m/S 688 mmHg 22%
    13:00 +34°C° 0 mm 5 m/S 688 mmHg 19%
    14:00 +34°C° 0 mm 5 m/S 688 mmHg 19%
    15:00 +34°C° 0 mm 4 m/S 687 mmHg 19%
    16:00 +34°C° 0 mm 4 m/S 687 mmHg 18%
    17:00 +33°C° 0 mm 4 m/S 687 mmHg 22%
    18:00 +32°C° 0 mm 4 m/S 687 mmHg 25%
    19:00 +30°C° 0 mm 4 m/S 687 mmHg 29%
    20:00 +29°C° 0 mm 4 m/S 687 mmHg 32%
    21:00 +28°C° 0 mm 4 m/S 687 mmHg 35%
    22:00 +26°C° 0 mm 3 m/S 687 mmHg 39%
    23:00 +26°C° 0 mm 3 m/S 687 mmHg 40%

    Morgen, 28 Mai, Montag

    Zeit Temperatur Niederschläge Wind Luftdruck Luftfeuchtigkeit
    00:00 +25°C° 0 mm 3 m/S 686 mmHg 42%
    01:00 +23°C° 0 mm 4 m/S 686 mmHg 43%
    02:00 +22°C° 0 mm 3 m/S 686 mmHg 44%
    03:00 +22°C° 0 mm 3 m/S 685 mmHg 44%
    04:00 +21°C° 0 mm 3 m/S 685 mmHg 45%
    05:00 +21°C° 0 mm 4 m/S 685 mmHg 43%
    06:00 +22°C° 0 mm 4 m/S 685 mmHg 41%
    07:00 +22°C° 0 mm 5 m/S 685 mmHg 39%
    08:00 +24°C° 0 mm 7 m/S 686 mmHg 34%
    09:00 +28°C° 0 mm 8 m/S 686 mmHg 29%
    10:00 +31°C° 0 mm 10 m/S 686 mmHg 23%
    11:00 +32°C° 0 mm 10 m/S 686 mmHg 23%
    12:00 +33°C° 0 mm 11 m/S 685 mmHg 23%
    13:00 +33°C° 0 mm 12 m/S 685 mmHg 23%
    14:00 +34°C° 0 mm 12 m/S 685 mmHg 23%
    15:00 +34°C° 0 mm 11 m/S 684 mmHg 22%
    16:00 +34°C° 0 mm 11 m/S 684 mmHg 21%
    17:00 +33°C° 0 mm 10 m/S 684 mmHg 23%
    18:00 +32°C° 0 mm 9 m/S 684 mmHg 25%
    19:00 +31°C° 0 mm 8 m/S 683 mmHg 27%
    20:00 +28°C° 0 mm 8 m/S 684 mmHg 32%
    21:00 +27°C° 0 mm 7 m/S 684 mmHg 36%
    22:00 +24°C° 0 mm 6 m/S 684 mmHg 40%
    23:00 +23°C° 0 mm 5 m/S 684 mmHg 45%

    übermorgen, 29 Mai, Dienstag

    Zeit Temperatur Niederschläge Wind Luftdruck Luftfeuchtigkeit
    00:00 +22°C° 0 mm 4 m/S 684 mmHg 49%
    01:00 +21°C° 0 mm 3 m/S 683 mmHg 54%
    02:00 +21°C° 0 mm 3 m/S 683 mmHg 58%
    03:00 +20°C° 0 mm 3 m/S 683 mmHg 62%
    04:00 +19°C° 0 mm 3 m/S 683 mmHg 66%
    05:00 +19°C° 0 mm 3 m/S 683 mmHg 67%
    06:00 +19°C° 0 mm 3 m/S 683 mmHg 67%
    07:00 +19°C° 0 mm 3 m/S 683 mmHg 68%
    08:00 +21°C° 0 mm 3 m/S 683 mmHg 63%
    09:00 +22°C° 0 mm 3 m/S 684 mmHg 57%
    10:00 +24°C° 0 mm 3 m/S 684 mmHg 52%
    11:00 +26°C° 0 mm 3 m/S 684 mmHg 46%
    12:00 +27°C° 0 mm 2 m/S 684 mmHg 41%
    13:00 +29°C° 0 mm 2 m/S 684 mmHg 35%
    14:00 +30°C° 0 mm 3 m/S 684 mmHg 32%
    15:00 +30°C° 0 mm 3 m/S 684 mmHg 30%
    16:00 +32°C° 0 mm 4 m/S 684 mmHg 27%
    17:00 +30°C° 0 mm 5 m/S 684 mmHg 32%
    18:00 +29°C° 0 mm 5 m/S 684 mmHg 38%
    19:00 +28°C° 0 mm 6 m/S 684 mmHg 43%
    20:00 +26°C° 0,1 mm 6 m/S 684 mmHg 52%
    21:00 +23°C° 0,1 mm 5 m/S 684 mmHg 61%
    22:00 +22°C° 0,1 mm 4 m/S 685 mmHg 71%
    23:00 +21°C° 0,1 mm 4 m/S 684 mmHg 73%

    30 Mai, Mittwoch

    Zeit Temperatur Niederschläge Wind Luftdruck Luftfeuchtigkeit
    00:00 +21°C° 0,1 mm 3 m/S 684 mmHg 76%
    01:00 +20°C° 0,1 mm 3 m/S 684 mmHg 79%
    02:00 +20°C° 0 mm 3 m/S 684 mmHg 80%
    03:00 +19°C° 0 mm 3 m/S 683 mmHg 82%
    04:00 +19°C° 0 mm 3 m/S 683 mmHg 84%
    05:00 +19°C° 0 mm 3 m/S 683 mmHg 81%
    06:00 +20°C° 0 mm 3 m/S 683 mmHg 78%
    07:00 +20°C° 0 mm 3 m/S 684 mmHg 75%
    08:00 +22°C° 0 mm 3 m/S 684 mmHg 66%
    09:00 +24°C° 0 mm 3 m/S 685 mmHg 56%
    10:00 +26°C° 0 mm 3 m/S 685 mmHg 46%
    11:00 +28°C° 0 mm 3 m/S 685 mmHg 40%
    12:00 +29°C° 0 mm 3 m/S 685 mmHg 35%
    13:00 +30°C° 0 mm 4 m/S 685 mmHg 29%
    14:00 +32°C° 0 mm 4 m/S 685 mmHg 28%
    15:00 +32°C° 0 mm 5 m/S 685 mmHg 27%
    16:00 +32°C° 0 mm 5 m/S 685 mmHg 25%
    17:00 +30°C° 0,1 mm 6 m/S 685 mmHg 29%
    18:00 +29°C° 0,1 mm 6 m/S 685 mmHg 33%
    19:00 +28°C° 0,1 mm 6 m/S 685 mmHg 36%
    20:00 +27°C° 0 mm 6 m/S 685 mmHg 41%
    21:00 +25°C° 0 mm 5 m/S 685 mmHg 46%
    22:00 +23°C° 0 mm 5 m/S 685 mmHg 51%
    23:00 +22°C° 0 mm 5 m/S 685 mmHg 53%

    31 Mai, Donnerstag

    Zeit Temperatur Niederschläge Wind Luftdruck Luftfeuchtigkeit
    00:00 +22°C° 0 mm 4 m/S 684 mmHg 56%
    01:00 +21°C° 0 mm 4 m/S 684 mmHg 58%
    02:00 +20°C° 0 mm 4 m/S 684 mmHg 59%
    03:00 +20°C° 0 mm 3 m/S 684 mmHg 60%
    04:00 +19°C° 0 mm 3 m/S 684 mmHg 62%
    05:00 +19°C° 0 mm 3 m/S 684 mmHg 60%
    06:00 +20°C° 0 mm 3 m/S 684 mmHg 59%
    07:00 +20°C° 0 mm 3 m/S 685 mmHg 57%
    08:00 +21°C° 0 mm 4 m/S 685 mmHg 49%
    09:00 +23°C° 0 mm 4 m/S 685 mmHg 41%
    10:00 +26°C° 0 mm 5 m/S 686 mmHg 32%
    11:00 +27°C° 0 mm 5 m/S 686 mmHg 29%
    12:00 +29°C° 0 mm 6 m/S 686 mmHg 26%
    13:00 +30°C° 0 mm 6 m/S 686 mmHg 22%
    14:00 +30°C° 0 mm 6 m/S 686 mmHg 22%
    15:00 +30°C° 0 mm 6 m/S 686 mmHg 22%
    16:00 +32°C° 0 mm 6 m/S 686 mmHg 22%
    17:00 +30°C° 0 mm 6 m/S 686 mmHg 25%
    18:00 +29°C° 0 mm 7 m/S 686 mmHg 28%
    19:00 +28°C° 0 mm 7 m/S 686 mmHg 31%
    20:00 +26°C° 0 mm 6 m/S 686 mmHg 36%
    21:00 +25°C° 0 mm 5 m/S 686 mmHg 40%
    22:00 +22°C° 0 mm 4 m/S 687 mmHg 44%
    23:00 +22°C° 0 mm 4 m/S 686 mmHg 47%

    1 Juni, Freitag

    Zeit Temperatur Niederschläge Wind Luftdruck Luftfeuchtigkeit
    00:00 +21°C° 0 mm 3 m/S 686 mmHg 50%
    01:00 +21°C° 0 mm 2 m/S 686 mmHg 52%
    02:00 +20°C° 0 mm 2 m/S 686 mmHg 54%
    03:00 +20°C° 0 mm 2 m/S 686 mmHg 55%
    04:00 +19°C° 0 mm 2 m/S 686 mmHg 57%
    05:00 +20°C° 0 mm 2 m/S 686 mmHg 56%
    06:00 +20°C° 0 mm 2 m/S 686 mmHg 55%
    07:00 +20°C° 0 mm 2 m/S 686 mmHg 54%
    08:00 +23°C° 0 mm 2 m/S 687 mmHg 48%
    09:00 +24°C° 0 mm 2 m/S 687 mmHg 41%
    10:00 +26°C° 0 mm 2 m/S 687 mmHg 35%
    11:00 +27°C° 0 mm 2 m/S 687 mmHg 32%
    12:00 +28°C° 0 mm 2 m/S 687 mmHg 29%
    13:00 +29°C° 0 mm 2 m/S 687 mmHg 26%
    14:00 +30°C° 0 mm 2 m/S 687 mmHg 25%
    15:00 +30°C° 0 mm 3 m/S 687 mmHg 24%
    16:00 +31°C° 0 mm 3 m/S 687 mmHg 23%
    17:00 +30°C° 0 mm 4 m/S 687 mmHg 24%
    18:00 +30°C° 0 mm 4 m/S 687 mmHg 26%
    19:00 +29°C° 0 mm 5 m/S 687 mmHg 28%
    20:00 +28°C° 0 mm 5 m/S 687 mmHg 32%
    21:00 +27°C° 0 mm 4 m/S 687 mmHg 37%
    22:00 +26°C° 0 mm 4 m/S 687 mmHg 41%
    23:00 +25°C° 0,1 mm 3 m/S 687 mmHg 45%
    Mehr zeigen